Hourly Data Report for October 15, 2021

ATIKOKAN (AUT)
ONTARIO
Current Station Operator: ECCC - MSC

48°45'40.000" N
91°37'41.000" W
389.30 m
6020LPQ
71747
WCH

Download Data

Hourly Data (October 2021)
Hourly Data Report for October 15, 2021
TIME
LST
Temp Definition
°C
Dew Point Definition
°C
Rel Hum Definition
%
Precip. Amount Definition
mm

Wind Dir Definition
10's deg

Wind Spd Definition
km/h
Visibility Definition
km
Stn Press Definition
kPa
Hmdx Definition


Wind Chill Definition


Weather Definition


00:00 7.1 4.6 85 0.0 23 12   96.11     LegendNANA
01:00 7.1 4.4 83 0.0 23 11   96.13     LegendNANA
02:00 7.2 4.0 80 0.0 23 10   96.13     LegendNANA
03:00 7.3 4.1 80 0.0 24 11   96.10     LegendNANA
04:00 7.4 4.1 79 0.0 24 12   96.11     LegendNANA
05:00 7.1 4.3 82 0.0 24 9   96.13     LegendNANA
06:00 7.1 4.1 81 0.0 24 13   96.12     LegendNANA
07:00 7.1 4.2 82 0.0 24 10   96.13     LegendNANA
08:00 6.8 4.6 86 0.0 23 11   96.18     LegendNANA
09:00 6.9 5.0 88 0.0 23 12   96.19     LegendNANA
10:00 7.3 5.1 86 0.0 25 13   96.19     LegendNANA
11:00 7.6 5.0 84 0.0 24 16   96.21     LegendNANA
12:00 7.6 6.0 90 0.1 24 11   96.20     LegendNANA
13:00 8.0 5.1 82 0.0 24 15   96.19     LegendNANA
14:00 7.8 4.5 80 0.0 25 10   96.20     LegendNANA
15:00 6.7 5.7 94 1.3 24 7   96.23     LegendNANA
16:00 6.7 5.7 93 0.3 26 7   96.25     LegendNANA
17:00 6.6 5.0 90 0.0 25 7   96.27     LegendNANA
18:00 6.3 4.9 91 0.0 26 9   96.29     LegendNANA
19:00 5.9 5.0 94 0.0 25 7   96.29     LegendNANA
20:00 5.8 4.8 93 0.0 26 8   96.28     LegendNANA
21:00 5.7 4.9 94 0.2 26 8   96.28     LegendNANA
22:00 5.6 4.8 95 0.1 26 4   96.28     LegendNANA
23:00 5.5 4.7 95 0.3 25 7   96.26     LegendNANA

Notes on Data Quality.

Legend

  • E = Estimated
  • M = Missing
  • NA = Not Available*
  • [empty] = Indicates an unobserved value
Date modified: